Location: Barrio La Cañada
(40.5999°N, 4.4959°W)
Time: 12:57:21
(UTC+00:00)

Daily predictions for brighter satellites

Satellite Brightness Start Highest point End
(mag) Time Altitude Azimuth Time Altitude Azimuth Time Altitude Azimuth
Okean 3 Rocket 4.4 20:07:22 10° NNE 20:11:21 33° ENE 20:15:18 10° SE
Cosmos 1656 Rocket 4.2 20:08:36 10° NNW 20:14:00 59° WSW 20:19:26 10° S
CZ-4 R/B 2.6 20:11:08 10° S 20:14:44 40° W 20:18:25 10° NNW
USA 59 Rocket 2.2 20:12:36 10° N 20:15:11 16° NE 20:18:12 10° E
CSL-04 Rocket 3.6 20:10:05 10° SSE 20:15:21 80° ENE 20:20:38 10° NNW
CZ-4C R/B 4.3 20:12:10 10° NE 20:15:40 29° E 20:19:15 10° SSE
Cosmos 2297 4.4 20:10:42 10° NNW 20:16:18 56° WSW 20:21:50 10° S
Cosmos 494 Rocket 4.4 20:11:19 10° SSW 20:16:23 69° WNW 20:21:30 10° NNE
Cosmos 1766 Rocket 3.6 20:15:56 10° N 20:20:25 81° E 20:24:52 10° S
Resurs 01 Rocket 1.7 20:16:02 10° SSE 20:20:27 84° WSW 20:24:55 10° NNW
CSL-04 Debris 4.3 20:17:21 10° SSE 20:22:49 81° WSW 20:28:17 10° NNW
Okean O Rocket 1.6 20:18:32 10° SSE 20:22:58 85° E 20:27:25 10° NNW
Cosmos 1452 Rocket 3.8 20:17:58 10° N 20:23:06 54° ENE 20:28:14 10° SE
CARTOSAT-1 3.6 20:18:52 10° SSE 20:23:07 84° WSW 20:27:24 10° NNW
PSLV R/B 3.6 20:21:47 10° SSE 20:25:29 88° E 20:29:09 10° NNW
USA 306 2.6 20:21:47 10° NW 20:25:33 85° NE 20:29:14 11° SE
Cosmos 468 4.5 20:21:21 10° S 20:26:32 75° ESE 20:31:45 10° NNE
Tsikada Rocket 4.2 20:20:24 10° S 20:26:37 80° W 20:32:56 10° N
Terra 3.5 20:24:40 10° ESE 20:27:51 18° ENE 20:31:03 10° NNE
ISS -3.1 20:25:22 10° WNW 20:28:37 48° SW 20:31:40 11° SSE
Hubble Space Telescope 2.6 20:27:44 10° SSW 20:29:51 14° S 20:31:46 11° SSE
USA 32 4.0 20:28:13 10° S 20:33:26 86° E 20:38:42 10° N
MOS 1-B Rocket 4.4 20:29:01 10° SSE 20:36:27 89° WSW 20:42:49 10° NNW
Cosmos 1603 3.7 20:31:12 10° SSW 20:36:52 88° ESE 20:42:37 10° NNE
SeaSat 1 2.7 20:32:58 10° SSE 20:37:50 68° WSW 20:42:44 10° NNW
Okean 1 3.9 20:34:58 10° SSE 20:38:29 35° E 20:42:03 10° NNE
Cosmos 2369 Rocket 3.0 20:33:12 10° NW 20:38:33 48° WSW 20:43:55 10° S
Centaur D AC-29 3.6 20:35:06 10° SSW 20:39:29 26° SSE 20:51:50 10° E
Cosmos 1408 Rocket 4.1 20:38:20 10° N 20:42:34 41° ENE 20:46:02 14° SE
DELTA 2 R/B (1) 3.9 20:37:28 10° SW 20:42:44 43° SSE 20:48:01 10° E
Cosmos 1151 Rocket 4.4 20:43:17 14° SE 20:45:36 22° E 20:48:55 10° NE
OAO 3 Rocket 4.3 20:42:54 10° SSW 20:46:43 24° SSE 20:49:34 15° ESE
USA 307 3.6 20:50:56 10° NW 20:50:57 10° NW 20:50:57 10° NW
Cosmos 1331 Rocket 4.0 20:52:35 10° NNW 20:57:49 82° WSW 21:02:18 14° SSE
NOSS 3-3 (A) 4.0 20:55:07 10° S 21:00:01 40° ESE 21:05:31 10° NE
Cosmos 1302 Rocket 4.5 20:55:04 10° N 21:00:05 47° ENE 21:03:31 19° SE
Meteor 1-19 Rocket 4.3 20:57:44 10° S 21:03:30 61° E 21:09:06 10° NNE
Cosmos 1536 2.7 21:03:41 10° N 21:07:37 86° E 21:10:22 19° S
MetOp-B 4.1 21:03:57 15° SSE 21:08:27 86° ENE 21:13:51 10° NNW
Meteor 1-10 Rocket 4.4 21:03:01 10° SSW 21:08:43 75° W 21:14:20 10° N
NOSS 2-1 (C) 4.4 21:05:05 10° NNW 21:08:58 42° NE 21:12:16 20° ESE
Landsat 4 4.4 21:09:33 25° ESE 21:10:52 34° ENE 21:14:03 10° N
Molniya-1 3.8 21:07:55 10° SSW 21:11:01 54° ESE 21:17:48 10° NE
Cosmos 1340 3.0 21:08:11 10° N 21:11:23 38° ENE 21:12:29 29° ESE
Okean-O 3.3 21:09:26 11° S 21:13:35 51° W 21:17:54 10° NNW
Nadezhda 4 Rocket 4.1 21:09:09 14° SSE 21:14:29 60° E 21:20:38 10° NNE
USA 245 2.6 21:14:21 37° E 21:14:29 38° ENE 21:16:49 10° N
Spot 2 Rocket 3.9 21:12:30 22° SE 21:15:26 47° ENE 21:20:16 10° N
Cosmos 2279 Rocket 4.2 21:11:08 10° N 21:17:19 73° W 21:23:09 12° S
Cosmos 1626 3.9 21:17:57 14° ENE 21:17:57 14° ENE 21:19:13 10° NE
Meteor 2-10 4.0 21:12:28 10° N 21:17:53 72° E 21:21:14 22° SSE
Cosmos 1500 Rocket 3.4 21:14:50 10° N 21:19:09 79° E 21:21:38 25° SSE
SPOT 5 2.8 21:17:09 18° S 21:20:29 70° WSW 21:24:51 10° NNW
Meteor 1-11 Rocket 3.9 21:17:13 10° NNW 21:22:58 79° W 21:27:35 17° S
BREEZE-M DEB (TANK) 3.9 21:06:58 10° SW 21:25:07 83° SE 21:29:13 10° NE
Cosmos 1726 3.5 21:22:50 10° NNW 21:25:33 27° W 21:27:48 13° SSW
Sich 1 2.9 21:22:21 10° N 21:26:45 79° E 21:28:59 28° SSE
Cosmos 1805 Rocket 3.5 21:26:23 10° N 21:30:49 87° E 21:33:05 29° S
Meteor 2-9 Rocket 4.3 21:26:26 10° N 21:32:20 84° W 21:36:17 22° S
Cosmos 1733 2.8 21:28:58 10° N 21:32:29 89° E 21:33:38 40° S
Orbus 7S? 4.3 21:25:15 10° SSW 21:33:02 48° SE 21:36:45 10° ENE
NOSS 3-3 (C) 3.6 21:28:22 10° SSW 21:33:33 71° ESE 21:39:35 10° NE
Cosmos 1633 Rocket 4.4 21:30:16 10° NNE 21:33:56 25° ENE 21:34:53 23° E
Ariane Rocket 2.9 21:36:07 30° SSE 21:38:40 76° ENE 21:43:46 10° N
Cosmos 1666 Rocket 4.3 21:36:00 10° N 21:39:57 34° ENE 21:40:50 31° ESE
Meteor 2-4 Rocket 3.8 21:46:32 28° S 21:49:46 68° E 21:55:40 10° NNE
ERS-1 Rocket 3.4 21:48:08 25° S 21:50:59 58° W 21:55:57 10° NNW
Cosmos 1340 Rocket 4.0 21:47:52 12° SW 21:51:13 40° WNW 21:54:59 10° N
Cosmos 2026 Rocket 4.0 21:49:44 30° SSE 21:52:52 62° E 21:59:00 10° NNE
SPOT 3 Rocket 3.5 21:51:13 34° SSE 21:53:30 87° WSW 21:58:40 10° NNW
Lacrosse 4 Rocket 1.3 21:52:35 10° NNW 21:56:43 71° ENE 21:57:32 53° SE
Cosmos 1818 4.1 21:51:52 10° SW 21:57:14 62° NW 22:02:41 10° NNE
Spot 1 3.9 21:55:30 10° NNE 21:59:42 83° ESE 22:01:02 44° S
Cosmos 1607 4.1 21:58:33 28° S 22:01:50 55° ESE 22:08:09 10° NE
USA 59 Rocket 0.5 22:00:40 10° NW 22:04:58 69° WSW 22:06:49 41° SSE
Terra 2.5 22:02:56 28° SSW 22:05:03 47° W 22:09:37 10° NNW
Cosmos 1805 3.2 22:03:03 10° NNW 22:06:44 67° W 22:07:13 59° SW
Cosmos 1627 Rocket 4.4 22:03:59 31° S 22:07:11 80° E 22:13:28 10° N
NOSS 2-1 (E) 4.1 22:03:45 10° NW 22:08:04 65° WSW 22:09:48 42° S
Cosmos 1833 Rocket 2.6 22:07:46 39° S 22:09:43 64° ESE 22:15:16 10° NNE
Cosmos 1766 4.2 22:06:24 10° N 22:09:34 34° ENE 22:09:34 34° ENE
IRIDIUM 106 4.2 22:06:33 10° N 22:11:48 78° E 22:13:17 47° SSE
Cosmos 1269 Rocket 4.1 22:12:55 24° SSW 22:16:04 73° WNW 22:21:21 10° NNE
Cosmos 1656 3.5 22:11:26 10° NNW 22:16:56 85° WSW 22:18:33 48° SSE
NOSS 2-1 (D) 4.5 22:17:01 10° NW 22:21:14 46° WSW 22:22:30 39° SSW
Cosmos 2082 Rocket 3.6 22:23:57 22° E 22:23:57 22° E 22:27:32 10° NE
Cosmos 1470 4.4 22:21:18 10° NNE 22:23:37 22° ENE 22:23:37 22° ENE
Cosmos 2251 Rocket 4.4 22:24:49 32° E 22:24:49 32° E 22:29:06 10° NE
Landsat 5 4.0 22:22:42 10° N 22:26:24 49° WNW 22:27:17 40° WSW
Cosmos 1975 3.3 22:24:50 10° NNW 22:28:39 49° W 22:28:58 48° WSW
DELTA 2 R/B (1) 3.4 22:23:18 10° W 22:28:54 79° S 22:31:29 33° E
Cosmos 1553 Rocket 4.1 22:27:44 10° N 22:33:46 60° E 22:35:15 47° SE
Cosmos 2360 4.1 22:29:58 10° NNW 22:35:44 81° ENE 22:37:00 56° SE
Cosmos 724 4.1 22:34:34 41° SSW 22:36:44 81° ESE 22:42:36 10° NNE
ARIANE 5 R/B 3.0 22:40:25 48° ENE 22:40:25 48° ENE 22:44:31 10° N
GEOS 3 Rocket 3.5 22:35:20 10° NE 22:40:31 87° NW 22:42:27 40° SW
Cosmos 1328 Rocket 4.4 22:42:02 37° WSW 22:43:01 43° WNW 22:47:08 10° N
USA 281 3.2 22:41:02 46° S 22:43:09 77° WSW 22:49:47 10° NNW
Cosmos 1023 Rocket 4.4 22:48:16 58° SSW 22:49:19 82° WNW 22:54:35 10° NNE
Cosmos 2285 Rocket 3.9 22:48:47 54° S 22:50:12 73° ESE 22:56:32 10° NNE
Cosmos 1626 3.9 22:50:44 22° WNW 22:50:44 22° WNW 22:53:15 10° NNW
CZ-2C R/B 3.5 22:49:24 10° NNE 22:53:46 86° N 22:53:46 86° N
Cosmos 1515 Rocket 3.5 22:54:05 75° WNW 22:54:05 75° WNW 22:58:16 10° N
Cosmos 1140 Rocket 3.5 22:54:16 58° SW 22:55:16 77° WNW 23:00:31 10° NNE
BREEZE-M DEB (TANK) 3.8 22:55:12 13° WSW 22:58:47 77° NNW 23:13:43 10° ENE
Cosmos 1707 3.8 23:00:27 39° NNE 23:00:27 39° NNE 23:02:52 10° N
Cosmos 2266 Rocket 4.0 23:02:10 56° SE 23:03:03 61° E 23:09:14 10° NNE
PSLV R/B 4.3 23:03:25 10° N 23:06:48 60° N 23:06:48 60° N
Cosmos 1470 Rocket 4.2 23:04:37 10° NNW 23:08:45 46° W 23:08:45 46° W
Cosmos 1869 Rocket 4.2 23:06:19 10° N 23:10:01 46° NE 23:10:01 46° NE
NOSS 3-4 (A) 4.0 23:03:50 10° NNW 23:10:52 72° NE 23:13:38 43° SE
NOSS 3-4 (C) 4.0 23:03:56 10° NNW 23:10:58 71° NE 23:13:46 43° SE
Cosmos 1697 Rocket 2.5 23:06:46 10° NNW 23:12:24 75° WSW 23:12:51 70° SSW
In-Cosmos 22 4.2 23:12:55 64° ESE 23:13:15 66° E 23:18:55 10° NNE
Cosmos 1674 4.3 23:18:27 29° NW 23:18:27 29° NW 23:20:48 10° NNW
Lacrosse 5 rocket 3.1 23:14:47 10° NNW 23:18:18 26° NNE 23:19:04 24° NE
SL-8 R/B 3.8 23:16:49 10° WNW 23:21:28 70° NNE 23:21:28 70° NNE
Cosmos 1980 Rocket 2.3 23:17:03 10° NNW 23:22:43 63° ENE 23:23:22 58° E
Cosmos 44 Rocket 3.8 23:20:22 10° NW 23:24:27 48° W 23:24:27 48° W
Cosmos 1655 Rocket 4.0 23:26:16 61° SE 23:27:02 66° E 23:33:22 10° NNE
Cosmos 540 Rocket 4.2 23:25:13 10° N 23:30:08 42° ENE 23:30:28 41° ENE
Cosmos 1763 Rocket 3.7 23:27:25 10° NNW 23:32:40 62° ENE 23:32:48 61° ENE
Cosmos 1933 Rocket 4.3 23:29:35 10° NNW 23:33:13 45° WNW 23:33:13 45° WNW
H-2A R/B 3.2 23:37:54 50° NW 23:37:54 50° NW 23:41:16 10° NNW
Cosmos 407 Rocket 4.1 23:36:25 43° W 23:37:22 49° WNW 23:42:27 10° N
GP-B 4.2 23:35:01 10° NNE 23:38:18 37° NE 23:38:18 37° NE
CZ-3 Stage 3 3.6 23:19:25 10° WSW 23:42:58 48° S 23:43:39 48° S
Cosmos 676 Rocket 4.3 23:44:45 59° ENE 23:44:45 59° ENE 23:49:31 10° NNE
Cosmos 1954 Rocket 4.0 23:45:26 74° ENE 23:45:26 74° ENE 23:50:27 10° NNE
ALOS 2 3.1 23:49:40 59° N 23:49:40 59° N 23:53:16 10° NNW
Cosmos 2369 3.6 23:44:44 10° NNW 23:50:29 80° ENE 23:50:46 77° ESE
Cosmos 1190 Rocket 4.1 23:51:06 68° W 23:51:15 69° WNW 23:56:34 10° NNE
